#timestamp,LO_Frequency,Hit,StdDev 
1522062015.4,286047000.1,N
1522062035.2,286047000.5,N
1522062055.0,286047000.1,N
1522062055.9,286047000.1,N
1522062075.8,286047000.5,N
1522062095.6,286047001.6,N
1522062115.5,286047002.8,N
1522062135.3,286047002.3,N
1522062155.1,286047000.9,N
1522062175.9,286047000.1,N
1522062195.7,286047001.0,N
1522062215.5,286047002.5,N
1522062235.4,286047002.1,N
1522062255.2,286047001.9,N
1522062275.1,286047001.9,N
1522062276.0,286047001.9,N
1522062295.8,286047002.1,N
1522062315.6,286047001.4,N
1522062335.5,286047001.5,N
1522062355.3,286047001.9,N
1522062375.1,286047002.5,N
1522062395.9,286047004.0,Y
1522062415.7,286047001.6,P
1522062435.6,286047001.6,P
1522062455.4,286047001.6,P
1522062475.2,286047004.4,Y
1522062495.1,286047000.9,P
1522062496.0,286047000.9,N
1522062515.8,286046999.8,N
1522062535.7,286047002.6,Y
1522062555.5,286047001.1,P
1522062575.3,286047001.0,P
1522062595.2,286046998.6,P
1522062615.0,286046997.0,N
1522062615.9,286046997.0,N
1522062635.8,286046997.8,N
1522062655.6,286046994.9,N
1522062675.4,286046994.9,N
1522062695.3,286046995.5,N
1522062715.1,286046995.0,N
1522062735.8,286046997.8,N
1522062755.7,286046997.1,N
1522062775.5,286046998.7,N
1522062795.4,286046998.1,N
1522062815.2,286046999.4,N
1522062835.0,286047000.3,N
1522062835.9,286047000.3,N
1522062855.8,286047000.4,N
1522062875.6,286046998.6,N
1522062895.4,286046999.1,N
1522062915.3,286046999.5,N
1522062935.1,286046996.5,N
1522062955.9,286046999.5,N
1522062975.7,286046998.4,N
1522062995.5,286046998.5,N
1522063015.4,286046996.5,N
1522063035.2,286046999.2,N
1522063055.0,286046996.9,N
1522063055.9,286046996.9,N
1522063075.8,286046999.3,N
1522063095.6,286047001.1,N
1522063115.5,286047000.6,N
1522063135.3,286046998.8,N
1522063155.1,286046998.4,N
1522063175.9,286046999.6,N
1522063195.7,286046998.4,N
1522063215.5,286046999.4,N
1522063235.4,286047001.2,N
1522063255.2,286046999.5,N
1522063275.1,286046996.6,N
1522063276.0,286046996.6,N
1522063295.8,286046998.9,N
1522063315.6,286047000.4,N
1522063335.5,286047001.7,N
1522063355.3,286046999.8,N
1522063375.2,286046999.7,N
1522063395.0,286047000.6,N
1522063395.9,286047000.6,N
1522063415.7,286047000.2,N
1522063435.6,286047001.8,N
1522063455.4,286046999.7,N
1522063475.3,286047002.0,N
1522063495.1,286047000.4,N
1522063496.0,286047000.4,N
1522063515.8,286047000.7,N
1522063535.7,286046998.3,N
1522063555.5,286047001.0,N
1522063575.3,286047000.7,N
1522063595.2,286046998.4,N
1522063615.0,286046998.4,N
1522063615.9,286046998.4,N
1522063635.8,286046999.3,N
1522063655.6,286047001.2,N
1522063675.4,286047000.8,N
1522063695.3,286047000.5,N
1522063715.1,286047000.0,N
1522063735.9,286047000.2,N
1522063755.7,286047002.8,N
1522063775.5,286047001.8,N
1522063795.4,286047001.0,N
1522063815.2,286046999.8,N
1522063835.0,286047001.2,N
1522063835.9,286047001.2,N
1522063855.8,286046998.6,N
1522063875.6,286046999.4,N
1522063895.5,286046999.2,N
1522063915.3,286046996.5,Y
1522063935.1,286046996.7,P
1522063955.9,286046999.1,N
1522063975.7,286046996.5,N
1522063995.5,286046998.8,N
1522064015.4,286047000.0,N
1522064035.2,286047000.6,N
1522064055.1,286047001.2,N
1522064056.0,286047001.2,N
1522064075.8,286046998.2,N
1522064095.6,286046998.4,N
1522064115.5,286046996.5,N
1522064135.3,286046999.4,N
1522064155.1,286046996.8,N
1522064175.9,286046996.8,N
1522064195.7,286046997.2,N
1522064215.6,286046998.9,N
1522064235.4,286046999.5,N
1522064255.2,286046997.2,N
1522064275.1,286046997.0,N
1522064276.0,286046997.0,N
1522064295.8,286046999.4,N
1522064315.6,286046999.4,N
1522064335.5,286046998.9,N
1522064355.3,286046999.5,N
1522064375.2,286046998.4,N
1522064395.9,286046998.6,N
1522064415.7,286046998.3,N
1522064435.6,286046998.3,N
1522064455.4,286046998.6,N
1522064475.2,286046999.0,N
1522064495.1,286046999.6,N
1522064496.0,286046999.6,N
1522064515.8,286046999.0,N
1522064535.7,286046999.6,N
1522064555.5,286046999.1,N
1522064575.3,286046998.4,N
1522064595.2,286047001.1,N
1522064615.0,286047000.8,N
1522064615.9,286047000.8,N
1522064635.7,286047001.1,N
1522064655.6,286047002.5,N
1522064675.4,286047000.7,N
1522064695.3,286047000.6,N
1522064715.1,286047002.7,N
1522064716.0,286047002.7,N
1522064735.8,286047000.0,N
1522064755.7,286047000.1,N
1522064775.5,286046999.7,N
1522064795.4,286047001.9,N
1522064815.2,286047001.3,N
1522064835.0,286047002.0,N
1522064835.9,286047002.0,N
1522064855.8,286047004.2,Y
1522064875.6,286047002.2,P
1522064895.4,286047000.6,N
1522064915.3,286047001.2,N
1522064935.1,286046998.6,N
1522064955.9,286046998.2,N
1522064975.7,286047000.7,N
1522064995.5,286046998.6,N
1522065015.4,286046998.8,N
1522065035.2,286046999.1,N
1522065055.1,286046998.5,N
1522065056.0,286046998.5,N
1522065075.8,286047000.1,N
1522065095.6,286047000.5,N
1522065115.5,286047000.1,N
1522065135.3,286047001.2,N
1522065155.1,286047001.1,N
1522065175.9,286047000.5,N
1522065195.7,286047002.6,N
1522065215.6,286047000.6,N
1522065235.4,286047001.2,N
1522065255.2,286047001.1,N
1522065275.1,286047000.1,N
1522065276.0,286047000.1,N
1522065295.8,286047000.2,N
1522065315.7,286047004.1,Y
1522065335.5,286047001.9,P
1522065355.3,286046999.8,N
1522065375.2,286046998.3,N
1522065395.9,286047000.3,N
1522065415.7,286047000.3,N
1522065435.6,286046999.7,N
1522065455.4,286047002.6,N
1522065475.2,286047001.0,N
1522065495.1,286046998.9,N
1522065496.0,286046998.9,N
1522065515.8,286046998.3,N
1522065535.7,286047000.7,N
1522065555.5,286046998.4,N
1522065575.3,286047001.0,N
1522065595.2,286047001.2,N
